[[{"header":{"parameterUnit":"m.s-1","parameterCategory":2,"la1":30.2991,"la2":30.254,"lo1":-89.0895,"lo2":-89.0444,"dy":0.0017,"dx":0.0017,"nx":28,"ny":28,"refTime":"2026-02-25T03:00:00:Z","depth":"0","parameterNumber":2,"parameterNumberName":"U-component_of_CURRENTS"},"data":[0,0,0,0,0,0,0,0,0,0,0,0,0,0,0,0,0,0,0,0,0,0,0,0,0,0,0,0,0,0,0,0,0,0,0,0,0,0,0,0,0,0,0,0,0,0,0,0,0,0,0,0,0,0,0,0,0,0,0.2649,0.265,0,0.2691,0.2691,0.2691,0.2633,0.2631,0.263,0.2628,0.2641,0.2642,0.2644,0,0,0,0,0,0,0,0,0,0,0,0,0,0.2583,0.2584,0.2649,0.265,0.2651,0.2691,0.2691,0.2691,0.2633,0.2631,0.2629,0.2628,0.264,0.2642,0.2644,0,0,0,0,0,0,0,0,0,0,0,0,0,0.2612,0.2584,0.2649,0.2631,0.263,0.2691,0.2691,0.2691,0.2634,0.2631,0.2629,0.2627,0.2639,0.2642,0.2645,0.271,0,0,0.2653,0.2654,0,0,0,0,0,0,0,0,0.2611,0.2614,0.2632,0.2632,0.2631,0.2659,0.2673,0.2698,0.2634,0.2627,0.2628,0.2625,0.2649,0.2651,0.2657,0.271,0.2711,0.2653,0.2655,0.2656,0.2657,0,0,0,0,0,0,0,0.2608,0.2612,0.266,0.2634,0.2633,0.2643,0.2643,0.2677,0.2646,0.2627,0.2624,0.2638,0.2648,0.2655,0.2657,0.2711,0.2653,0.2656,0.2657,0.2658,0.2848,0.2852,0,0,0,0,0,0,0.2613,0.261,0.2659,0.2662,0.2621,0.2646,0.2647,0.2648,0.2647,0.2646,0.264,0.2635,0.2651,0.2654,0.2657,0.2768,0.2656,0.2659,0.266,0.2845,0.2849,0.2853,0,0,0,0,0,0,0.2612,0.2617,0.2657,0.2642,0.2648,0.265,0.2653,0.265,0.2662,0.2658,0.2654,0.2655,0.2649,0.2654,0.2709,0.2767,0.266,0.2662,0.2841,0.2846,0.2851,0.2968,0,0,0,0,0,0,0.2609,0.2616,0.2619,0.2642,0.2649,0.272,0.2656,0.2653,0.2676,0.267,0.267,0.2668,0.2648,0.2705,0.2712,0.2768,0.2665,0.2837,0.2843,0.2849,0.296,0.2977,0.2991,0,0,0,0,0,0.2606,0.2629,0.2618,0.2625,0.2653,0.2724,0.273,0.2718,0.268,0.2713,0.2706,0.2668,0.275,0.2711,0.2718,0.2776,0.2834,0.2842,0.2849,0.2953,0.2974,0.2991,0,0,0,0,0,0,0.2602,0.2626,0.2615,0.2641,0.269,0.2716,0.2743,0.2736,0.2756,0.274,0.2716,0.2717,0.2791,0.2775,0.2732,0.2852,0.2785,0.2795,0.2862,0.2881,0.2897,0.2909,0.2667,0,0,0,0,0,0.2605,0.2624,0.2663,0.2688,0.2714,0.2731,0.2754,0.2754,0.2777,0.2781,0.278,0.2788,0.2832,0.2846,0.2876,0.2944,0.2964,0.2987,0.3002,0.3015,0.3033,0.3132,0.3158,0.2878,0.2878,0.2878,0,0,0.2606,0.2628,0.2634,0.2689,0.2716,0.2776,0.2738,0.2791,0.2834,0.2784,0.2835,0.285,0.2865,0.294,0.297,0.293,0.3108,0.3025,0.3036,0.3046,0.3143,0.317,0.3194,0.2883,0.2882,0.2881,0,0,0.2648,0.2647,0.2687,0.2732,0.2793,0.2817,0.284,0.2881,0.2892,0.2963,0.2937,0.2992,0.3039,0.3066,0.3086,0.3212,0.3193,0.3215,0.3296,0.3393,0.3417,0.3438,0.3502,0.3528,0.3213,0.3214,0.3214,0,0.265,0.2697,0.2717,0.2778,0.2819,0.2841,0.2907,0.2942,0.2992,0.3026,0.2995,0.3105,0.3108,0.3216,0.3249,0.3249,0.3286,0.3219,0.3414,0.3435,0.3454,0.3515,0.3542,0.322,0.322,0.3219,0.3218,0,0.2732,0.2766,0.2804,0.2876,0.2931,0.2996,0.3052,0.3102,0.3118,0.3153,0.3262,0.3284,0.3347,0.3362,0.3341,0.3484,0.346,0.3428,0.3363,0.349,0.3545,0.3571,0.323,0.3227,0.3225,0.3224,0,0,0.2748,0.2838,0.285,0.2893,0.2983,0.3042,0.3131,0.3233,0.33,0.3355,0.3461,0.3531,0.3537,0.3562,0.3554,0.3626,0.3787,0.3584,0.3586,0.3642,0.3993,0.3841,0.3854,0.379,0.3795,0.38,0.3977,0,0.2809,0.2921,0.2952,0.3062,0.313,0.3173,0.3259,0.3347,0.3418,0.3527,0.3581,0.3684,0.3616,0.3665,0.373,0.3779,0.3861,0.3741,0.3867,0.3871,0.3716,0.3881,0.3643,0.377,0.4002,0.4006,0.4009,0,0.2888,0.2953,0.3062,0.3158,0.3191,0.3254,0.3395,0.3476,0.3624,0.368,0.3785,0.3837,0.3962,0.3889,0.4044,0.397,0.4,0.4025,0.4032,0.3867,0.3768,0.3681,0.3807,0.3772,0.4049,0.4045,0.4043,0,0.2919,0.3028,0.3112,0.3148,0.3268,0.3318,0.3385,0.3524,0.3637,0.3795,0.391,0.4024,0.4123,0.4188,0.4219,0.4161,0.4381,0.4307,0.4205,0.4194,0.4003,0.3964,0.4099,0.4449,0.4449,0.4448,0.4448,0,0.2981,0.3052,0.3125,0.3177,0.3297,0.335,0.3498,0.3579,0.375,0.3903,0.399,0.4128,0.421,0.433,0.432,0.4341,0.4469,0.4263,0.425,0.4034,0.3998,0.396,0.3944,0.4455,0.4454,0.4452,0.4451,0,0.3044,0.3069,0.3192,0.3295,0.3319,0.3421,0.3577,0.3709,0.3826,0.4038,0.4113,0.4283,0.4381,0.4444,0.4557,0.4473,0.4378,0.4483,0.4201,0.4149,0.3938,0.3934,0.3852,0.3737,0.4397,0.4395,0.4393,0,0.3111,0.3166,0.3289,0.3379,0.3431,0.3555,0.3658,0.3753,0.389,0.4109,0.4228,0.4392,0.4435,0.4525,0.4419,0.4392,0.4324,0.4191,0.4023,0.3937,0.3928,0.3759,0.3658,0.3834,0.3828,0.3823,0.3818,0,0.327,0.3296,0.3415,0.3576,0.3676,0.3751,0.3872,0.3941,0.4058,0.4185,0.428,0.4314,0.4342,0.4171,0.4149,0.4094,0.3965,0.4077,0.4092,0.3594,0.3321,0.3197,0.3702,0.3772,0.3776,0.378,0.3782,0.3784,0.3436,0.3549,0.3688,0.3828,0.3917,0.3903,0.3884,0.3958,0.4025,0.4036,0.4165,0.4061,0.4,0.3861,0.3808,0.3603,0.3604,0.3481,0.3519,0.3383,0.3156,0.3533,0.3507,0.351,0.3513,0.3515,0.3517,0,0.3647,0.375,0.393,0.4031,0.4077,0.4045,0.402,0.3906,0.3821,0.3811,0.3769,0.3602,0.3444,0.3388,0.3212,0.3089,0.2913,0.3058,0.2823,0.2777,0.3226,0.3083,0.2836,0.2836,0.2836,0.2836,0.2836,0.2836,0.3796,0.3969,0.4017,0.4122,0.4141,0.398,0.3851,0.3636,0.3519,0.3226,0.3049,0.3015,0.3103,0.3074,0.2912,0.2823,0.2682,0.2492,0.2595,0.2987,0.303,0.3071,0.2938,0.2664,0.2664,0.1943,0.1938,0.1935]},{"header":{"parameterUnit":"m.s-1","parameterCategory":2,"la1":30.2991,"la2":30.254,"lo1":-89.0895,"lo2":-89.0444,"dy":0.0017,"dx":0.0017,"nx":28,"ny":28,"refTime":"2026-02-25T03:00:00:Z","depth":"0","parameterNumber":3,"parameterNumberName":"V-component_of_CURRENTS"},"data":[0,0,0,0,0,0,0,0,0,0,0,0,0,0,0,0,0,0,0,0,0,0,0,0,0,0,0,0,0,0,0,0,0,0,0,0,0,0,0,0,0,0,0,0,0,0,0,0,0,0,0,0,0,0,0,0,0,0,0.0331,0.0331,0,0.0348,0.0349,0.0349,0.0334,0.0334,0.0333,0.0333,0.0314,0.0314,0.0314,0,0,0,0,0,0,0,0,0,0,0,0,0,0.0268,0.027,0.0331,0.0331,0.0331,0.0348,0.0349,0.0349,0.0334,0.0334,0.0333,0.0333,0.0314,0.0314,0.0314,0,0,0,0,0,0,0,0,0,0,0,0,0,0.0291,0.027,0.0331,0.0327,0.0327,0.0348,0.0349,0.0349,0.0334,0.0334,0.0333,0.0332,0.0314,0.0314,0.0314,0.0329,0,0,0.0314,0.0314,0,0,0,0,0,0,0,0,0.0289,0.0293,0.0327,0.0328,0.0327,0.0339,0.032,0.0341,0.0335,0.033,0.0333,0.0332,0.0321,0.032,0.0324,0.0328,0.0327,0.0314,0.0314,0.0314,0.0314,0,0,0,0,0,0,0,0.0288,0.0292,0.0337,0.0328,0.0328,0.0319,0.0322,0.0324,0.0328,0.0331,0.033,0.0334,0.032,0.0324,0.0323,0.0327,0.0314,0.0314,0.0314,0.0314,0.0338,0.0338,0,0,0,0,0,0,0.029,0.0291,0.0336,0.0337,0.0308,0.0321,0.0324,0.0335,0.0329,0.0328,0.0335,0.0333,0.0324,0.0323,0.0322,0.0363,0.0314,0.0314,0.0314,0.0337,0.0338,0.0339,0,0,0,0,0,0,0.0289,0.0294,0.0335,0.0315,0.0319,0.0323,0.0336,0.0336,0.0341,0.0332,0.033,0.034,0.0324,0.0322,0.0336,0.0361,0.0314,0.0314,0.0336,0.0337,0.0338,0.043,0,0,0,0,0,0,0.0287,0.0294,0.0303,0.0315,0.0321,0.0364,0.0337,0.0337,0.0346,0.0344,0.0337,0.0334,0.0323,0.0336,0.0336,0.0361,0.0314,0.0335,0.0337,0.0338,0.0426,0.0434,0.0441,0,0,0,0,0,0.0285,0.0308,0.0304,0.0309,0.0333,0.0366,0.0369,0.0367,0.0347,0.0365,0.0354,0.0334,0.0343,0.0337,0.0337,0.0362,0.0335,0.0336,0.0338,0.0423,0.0432,0.0441,0,0,0,0,0,0,0.0282,0.0309,0.0304,0.0332,0.0353,0.0364,0.038,0.0372,0.0378,0.0371,0.0351,0.035,0.0368,0.035,0.0343,0.0369,0.0332,0.0334,0.0397,0.0406,0.0413,0.0452,0.0314,0,0,0,0,0,0.0287,0.0313,0.0332,0.0355,0.0368,0.0372,0.0382,0.0382,0.0389,0.039,0.0381,0.037,0.0374,0.0378,0.0375,0.0396,0.0381,0.0407,0.0414,0.0421,0.045,0.0455,0.0466,0.0344,0.0344,0.0344,0,0,0.0289,0.0309,0.0321,0.0356,0.0369,0.0411,0.0377,0.0403,0.0436,0.0387,0.0421,0.0398,0.0384,0.0409,0.0414,0.0398,0.0441,0.0423,0.0429,0.0455,0.0458,0.047,0.0481,0.0345,0.0344,0.0344,0,0,0.0327,0.033,0.0373,0.0397,0.0428,0.0437,0.0447,0.0462,0.0468,0.0497,0.0466,0.0468,0.0468,0.0472,0.0472,0.0518,0.0478,0.0498,0.0574,0.0579,0.059,0.0599,0.0573,0.0579,0.0504,0.0505,0.0505,0,0.0326,0.0391,0.0389,0.0442,0.0475,0.0454,0.0515,0.0522,0.0536,0.0556,0.0521,0.0535,0.0509,0.0558,0.0564,0.054,0.052,0.0545,0.0591,0.06,0.0609,0.0579,0.0585,0.0509,0.0509,0.0508,0.0508,0,0.0408,0.0457,0.0486,0.055,0.058,0.0627,0.0643,0.0663,0.0656,0.0662,0.0697,0.0664,0.0682,0.0656,0.0625,0.067,0.0627,0.0599,0.0576,0.0627,0.0592,0.0596,0.0516,0.0514,0.0513,0.0512,0,0,0.0424,0.0525,0.0537,0.0596,0.0646,0.0687,0.0739,0.0798,0.0849,0.083,0.0906,0.0874,0.0845,0.0843,0.0796,0.0785,0.0799,0.0718,0.0716,0.0705,0.0786,0.0749,0.0749,0.0776,0.0778,0.078,0.0731,0,0.0497,0.0626,0.0651,0.0768,0.0842,0.0847,0.0907,0.0944,0.0963,0.1021,0.0986,0.1031,0.0921,0.0939,0.0909,0.0838,0.082,0.0814,0.0729,0.0726,0.0698,0.0757,0.0725,0.0679,0.0735,0.0736,0.0736,0,0.0582,0.0665,0.0797,0.0912,0.0942,0.0993,0.1097,0.1151,0.1205,0.1222,0.1243,0.1221,0.1217,0.112,0.1025,0.1023,0.092,0.0844,0.084,0.0787,0.0699,0.064,0.0685,0.06,0.0743,0.0742,0.0742,0,0.0635,0.0769,0.0884,0.0923,0.1037,0.1089,0.1144,0.121,0.1292,0.1365,0.1437,0.14,0.1419,0.1294,0.1121,0.1083,0.1007,0.0939,0.0807,0.08,0.0751,0.0739,0.0722,0.089,0.089,0.089,0.089,0,0.072,0.0811,0.0917,0.0981,0.1111,0.1162,0.1293,0.1341,0.1454,0.1582,0.1548,0.1639,0.1466,0.1399,0.1205,0.1025,0.1071,0.0846,0.0805,0.0777,0.0768,0.0672,0.0605,0.0888,0.0889,0.0889,0.0889,0,0.0774,0.0839,0.0983,0.111,0.1142,0.1243,0.1388,0.1495,0.1583,0.1761,0.1808,0.1832,0.174,0.154,0.1346,0.1155,0.0905,0.0897,0.086,0.0817,0.0606,0.0545,0.0473,0.0424,0.0754,0.0754,0.0753,0,0.0821,0.0901,0.1061,0.1143,0.1201,0.1336,0.143,0.1543,0.1688,0.1882,0.1997,0.1981,0.1976,0.1669,0.1325,0.1004,0.0891,0.0792,0.0722,0.0623,0.0523,0.0483,0.0445,0.0671,0.067,0.0669,0.0668,0,0.0918,0.097,0.1092,0.124,0.1354,0.1491,0.1651,0.1782,0.1954,0.2113,0.2287,0.2297,0.2009,0.1686,0.1261,0.1026,0.0727,0.0759,0.068,0.0494,0.0428,0.0351,0.0652,0.0658,0.0659,0.0659,0.066,0.066,0.0989,0.1089,0.1226,0.1362,0.1497,0.165,0.1772,0.1973,0.2197,0.2437,0.2443,0.2458,0.2037,0.144,0.1133,0.0623,0.0629,0.0477,0.0417,0.0392,0.034,0.0614,0.0562,0.0562,0.0563,0.0563,0.0563,0,0.108,0.1181,0.1326,0.1509,0.1655,0.169,0.1926,0.2073,0.2337,0.2496,0.2609,0.2384,0.1872,0.1366,0.0667,0.0347,0.0225,0.0208,0.015,0.0131,0.0394,0.0388,0.027,0.027,0.027,0.027,0.027,0.027,0.1143,0.1283,0.1347,0.1591,0.1715,0.19,0.2023,0.2242,0.24,0.2557,0.2546,0.2513,0.2198,0.1012,0.0295,0.0124,-0.0041,-0.012,-0.0162,0.0016,0.0037,0.0057,0.0039,-0.015,-0.0151,-0.0399,-0.0401,-0.0403]}],[{"header":{"parameterUnit":"m.s-1","parameterCategory":2,"la1":30.2991,"la2":30.254,"lo1":-89.0895,"lo2":-89.0444,"dy":0.0017,"dx":0.0017,"nx":28,"ny":28,"refTime":"2026-02-25T03:00:00:Z","depth":"2","parameterNumber":2,"parameterNumberName":"U-component_of_CURRENTS"},"data":[0,0,0,0,0,0,0,0,0,0,0,0,0,0,0,0,0,0,0,0,0,0,0,0,0,0,0,0,0,0,0,0,0,0,0,0,0,0,0,0,0,0,0,0,0,0,0,0,0,0,0,0,0,0,0,0,0,0,0.2441,0.2441,0,0.2474,0.2474,0.2474,0.244,0.2439,0.2438,0.2437,0.246,0.2461,0.2463,0,0,0,0,0,0,0,0,0,0,0,0,0,0.2394,0.2394,0.2441,0.2441,0.2442,0.2474,0.2474,0.2474,0.2441,0.2439,0.2438,0.2437,0.2459,0.2461,0.2463,0,0,0,0,0,0,0,0,0,0,0,0,0,0.2416,0.2394,0.244,0.2432,0.2431,0.2474,0.2474,0.2474,0.2441,0.2439,0.2438,0.2436,0.2459,0.2461,0.2463,0.2508,0,0,0.247,0.2471,0,0,0,0,0,0,0,0,0.2414,0.2417,0.2432,0.2432,0.2432,0.2454,0.2466,0.2486,0.2441,0.2434,0.2437,0.2436,0.2461,0.2463,0.2467,0.2509,0.251,0.247,0.2472,0.2473,0.2473,0,0,0,0,0,0,0,0.2413,0.2416,0.245,0.2433,0.2433,0.2442,0.2443,0.247,0.2452,0.2434,0.2433,0.2442,0.246,0.2465,0.2468,0.251,0.247,0.2472,0.2474,0.2475,0.2639,0.2642,0,0,0,0,0,0,0.2415,0.2414,0.2449,0.2452,0.2423,0.2444,0.2445,0.2446,0.2452,0.2453,0.2444,0.2441,0.2462,0.2465,0.2468,0.2578,0.2473,0.2475,0.2476,0.2636,0.264,0.2643,0,0,0,0,0,0,0.2414,0.2418,0.2448,0.2437,0.2442,0.2447,0.2448,0.2448,0.2464,0.246,0.2459,0.2462,0.2461,0.2465,0.2513,0.2576,0.2476,0.2478,0.2633,0.2637,0.2641,0.276,0,0,0,0,0,0,0.2412,0.2417,0.2422,0.2437,0.2442,0.2499,0.245,0.2449,0.2473,0.247,0.2476,0.2476,0.246,0.251,0.2515,0.2577,0.248,0.2629,0.2635,0.264,0.2753,0.2768,0.2782,0,0,0,0,0,0.241,0.243,0.2421,0.2426,0.2447,0.2502,0.2507,0.2502,0.2476,0.2506,0.2503,0.2476,0.2549,0.2514,0.252,0.2584,0.2626,0.2633,0.264,0.2746,0.2765,0.2781,0,0,0,0,0,0,0.2413,0.2429,0.242,0.2442,0.248,0.2498,0.2523,0.2519,0.254,0.2529,0.2513,0.2515,0.2586,0.257,0.2532,0.2649,0.2585,0.2593,0.2664,0.2682,0.2696,0.2689,0.2482,0,0,0,0,0,0.2417,0.2433,0.246,0.2482,0.2502,0.2515,0.2535,0.2535,0.2555,0.2561,0.2567,0.2578,0.262,0.2635,0.2663,0.2724,0.2728,0.277,0.2785,0.2797,0.2797,0.289,0.2913,0.2665,0.2665,0.2665,0,0,0.2419,0.2436,0.2442,0.2485,0.2506,0.2552,0.2523,0.2566,0.261,0.2563,0.2623,0.2636,0.265,0.2722,0.2751,0.2713,0.2869,0.2806,0.2816,0.2808,0.2899,0.2923,0.2944,0.267,0.2669,0.2668,0,0,0.2452,0.2458,0.2486,0.2525,0.2571,0.2589,0.2609,0.2643,0.2666,0.2731,0.2713,0.2758,0.2812,0.2834,0.2853,0.2966,0.295,0.2982,0.3044,0.3136,0.3157,0.3175,0.3202,0.3222,0.2981,0.2982,0.2982,0,0.2456,0.2493,0.251,0.2559,0.2595,0.2611,0.2663,0.2704,0.2749,0.2775,0.2766,0.2862,0.2869,0.2961,0.2995,0.3,0.3028,0.2975,0.3155,0.3174,0.3191,0.3214,0.3234,0.2988,0.2988,0.2987,0.2986,0,0.2519,0.2548,0.258,0.2638,0.2684,0.2738,0.2792,0.2834,0.286,0.289,0.2992,0.3021,0.3069,0.3096,0.3079,0.3206,0.3178,0.3171,0.3109,0.3223,0.3239,0.3259,0.2998,0.2995,0.2993,0.2992,0,0,0.2527,0.2604,0.2615,0.2644,0.2729,0.2768,0.2854,0.2932,0.2989,0.3049,0.3136,0.3214,0.3219,0.3241,0.3248,0.3317,0.3454,0.3296,0.3298,0.3317,0.3628,0.3447,0.345,0.3493,0.3497,0.3501,0.3588,0,0.2575,0.266,0.2695,0.2776,0.2825,0.2866,0.2947,0.3013,0.3087,0.3175,0.3227,0.3322,0.3285,0.3332,0.3399,0.3456,0.3512,0.3428,0.3518,0.3519,0.3342,0.3469,0.3207,0.3249,0.3606,0.3609,0.3611,0,0.263,0.268,0.2766,0.2836,0.2862,0.2915,0.3028,0.3108,0.3226,0.3284,0.3375,0.3425,0.3536,0.3499,0.3646,0.3602,0.3618,0.3645,0.365,0.3448,0.3374,0.3196,0.327,0.3643,0.364,0.3638,0.3636,0,0.2637,0.2723,0.2788,0.2821,0.2914,0.2955,0.3013,0.3133,0.3226,0.3371,0.3466,0.3572,0.3671,0.3734,0.3773,0.374,0.3919,0.3878,0.3719,0.3704,0.3477,0.3434,0.3976,0.3976,0.3976,0.3975,0.3975,0,0.2682,0.2733,0.2789,0.2831,0.2902,0.2969,0.3098,0.3151,0.3304,0.3422,0.3531,0.3649,0.3749,0.3848,0.3843,0.3839,0.398,0.3746,0.3734,0.3506,0.3467,0.3796,0.3774,0.3979,0.3978,0.3977,0.3977,0,0.2699,0.2743,0.2812,0.2891,0.2911,0.2971,0.3127,0.3234,0.337,0.3539,0.3597,0.376,0.3839,0.3894,0.3991,0.3927,0.3938,0.3889,0.3574,0.3521,0.3635,0.3618,0.3725,0.372,0.3716,0.3712,0.3709,0,0.2721,0.2758,0.2833,0.287,0.2911,0.3019,0.3108,0.3245,0.3335,0.3589,0.3634,0.3792,0.3824,0.3884,0.3797,0.3737,0.3823,0.3458,0.3324,0.3641,0.362,0.361,0.36,0.3078,0.307,0.3064,0.3058,0,0.2778,0.2803,0.287,0.2925,0.3003,0.3071,0.3165,0.3228,0.3399,0.3516,0.3619,0.3682,0.3711,0.3508,0.3434,0.3362,0.3439,0.3314,0.3807,0.3154,0.303,0.3008,0.3021,0.3,0.3006,0.301,0.3013,0.3015,0.2825,0.2851,0.2933,0.2956,0.3081,0.3089,0.3081,0.3158,0.324,0.3289,0.3437,0.3397,0.3376,0.3071,0.2942,0.283,0.3045,0.2911,0.2933,0.2962,0.2843,0.2716,0.2602,0.2605,0.2608,0.2611,0.2613,0,0.2845,0.2867,0.2934,0.2937,0.3014,0.3145,0.3102,0.3019,0.3,0.3057,0.3062,0.2766,0.2609,0.2563,0.231,0.2269,0.2271,0.2151,0.2156,0.2216,0.2269,0.2116,0.1682,0.1679,0.1675,0.1673,0,0,0.2862,0.2874,0.2848,0.2867,0.2957,0.2997,0.2971,0.2773,0.2664,0.2532,0.2446,0.2566,0.2572,0.2138,0.2039,0.1831,0.2018,0.1747,0.2506,0.2581,0.2631,0.2724,0.2558,0,0,0,0,0]},{"header":{"parameterUnit":"m.s-1","parameterCategory":2,"la1":30.2991,"la2":30.254,"lo1":-89.0895,"lo2":-89.0444,"dy":0.0017,"dx":0.0017,"nx":28,"ny":28,"refTime":"2026-02-25T03:00:00:Z","depth":"2","parameterNumber":3,"parameterNumberName":"V-component_of_CURRENTS"},"data":[0,0,0,0,0,0,0,0,0,0,0,0,0,0,0,0,0,0,0,0,0,0,0,0,0,0,0,0,0,0,0,0,0,0,0,0,0,0,0,0,0,0,0,0,0,0,0,0,0,0,0,0,0,0,0,0,0,0,0.0216,0.0216,0,0.0232,0.0232,0.0232,0.0225,0.0224,0.0224,0.0224,0.0207,0.0206,0.0206,0,0,0,0,0,0,0,0,0,0,0,0,0,0.0161,0.0162,0.0216,0.0216,0.0217,0.0232,0.0232,0.0232,0.0225,0.0224,0.0224,0.0223,0.0207,0.0206,0.0206,0,0,0,0,0,0,0,0,0,0,0,0,0,0.0181,0.0162,0.0216,0.0215,0.0215,0.0232,0.0232,0.0232,0.0225,0.0224,0.0224,0.0223,0.0207,0.0206,0.0206,0.0215,0,0,0.0206,0.0206,0,0,0,0,0,0,0,0,0.018,0.0183,0.0215,0.0215,0.0216,0.0226,0.0206,0.0225,0.0225,0.022,0.0224,0.0223,0.0211,0.021,0.0214,0.0214,0.0213,0.0206,0.0205,0.0205,0.0205,0,0,0,0,0,0,0,0.0178,0.0182,0.0221,0.0215,0.0216,0.0208,0.021,0.021,0.0217,0.0221,0.022,0.0224,0.0211,0.0214,0.0213,0.0213,0.0206,0.0205,0.0205,0.0205,0.0222,0.0222,0,0,0,0,0,0,0.018,0.0181,0.0221,0.0222,0.0197,0.0209,0.0212,0.0223,0.0218,0.0217,0.0224,0.0223,0.0215,0.0214,0.0213,0.0249,0.0205,0.0205,0.0205,0.0221,0.0222,0.0222,0,0,0,0,0,0,0.0179,0.0184,0.022,0.0202,0.0206,0.0211,0.0223,0.0223,0.0229,0.0221,0.0219,0.023,0.0214,0.0213,0.0223,0.0247,0.0205,0.0205,0.022,0.0221,0.0222,0.0303,0,0,0,0,0,0,0.0177,0.0183,0.0192,0.0202,0.0207,0.0244,0.0224,0.0224,0.0232,0.0232,0.0226,0.0223,0.0214,0.0224,0.0223,0.0246,0.0205,0.022,0.0221,0.0222,0.03,0.0307,0.0313,0,0,0,0,0,0.0175,0.0196,0.0193,0.0198,0.0219,0.0246,0.0248,0.0248,0.0233,0.0249,0.024,0.0224,0.0229,0.0224,0.0223,0.0246,0.0219,0.0221,0.0222,0.0297,0.0306,0.0313,0,0,0,0,0,0,0.0175,0.0198,0.0194,0.022,0.0236,0.0245,0.026,0.0253,0.0258,0.0254,0.0237,0.0235,0.0251,0.0234,0.0229,0.0251,0.0219,0.022,0.0277,0.0284,0.0291,0.0311,0.0205,0,0,0,0,0,0.0179,0.0203,0.0218,0.0239,0.0249,0.0252,0.0261,0.0261,0.0267,0.0268,0.0261,0.0252,0.0255,0.0259,0.0255,0.0272,0.0248,0.0282,0.0289,0.0295,0.0309,0.0303,0.0311,0.0227,0.0227,0.0227,0,0,0.0181,0.02,0.021,0.0241,0.0251,0.0285,0.0257,0.0279,0.0309,0.0265,0.0298,0.0276,0.0263,0.0285,0.0289,0.0275,0.03,0.0296,0.0302,0.0312,0.0306,0.0314,0.0321,0.0228,0.0227,0.0227,0,0,0.0214,0.0219,0.0255,0.0277,0.0302,0.0308,0.0316,0.0328,0.0337,0.0362,0.0336,0.0332,0.0336,0.0335,0.0335,0.0373,0.0333,0.0362,0.0418,0.0413,0.042,0.0426,0.0386,0.0388,0.0368,0.0368,0.0368,0,0.0213,0.027,0.0268,0.0314,0.0343,0.0323,0.0373,0.0382,0.0393,0.0404,0.0384,0.0386,0.0367,0.0399,0.0407,0.0391,0.0366,0.0393,0.0423,0.0429,0.0434,0.0391,0.0392,0.0372,0.0372,0.0371,0.0371,0,0.0283,0.0326,0.0351,0.0405,0.043,0.047,0.0485,0.0497,0.0494,0.0495,0.0517,0.0492,0.0496,0.0481,0.0459,0.0485,0.0446,0.0431,0.0409,0.0448,0.0399,0.0399,0.0378,0.0377,0.0375,0.0374,0,0,0.0296,0.0384,0.0395,0.0441,0.0487,0.0516,0.0561,0.06,0.0636,0.062,0.067,0.0648,0.0617,0.0614,0.0579,0.0565,0.0563,0.0516,0.0514,0.0485,0.0526,0.0457,0.045,0.0555,0.0556,0.0556,0.047,0,0.0356,0.0465,0.049,0.0584,0.0642,0.0644,0.0696,0.0716,0.073,0.0764,0.0727,0.0756,0.0677,0.0687,0.066,0.0603,0.0569,0.0586,0.0485,0.0481,0.0424,0.0451,0.0476,0.0398,0.047,0.0469,0.0469,0,0.0426,0.0496,0.0606,0.0695,0.072,0.0762,0.0836,0.0883,0.0908,0.092,0.092,0.089,0.0876,0.0808,0.0718,0.0732,0.0634,0.0568,0.0563,0.0476,0.0414,0.0374,0.0395,0.0469,0.0469,0.0469,0.0469,0,0.0461,0.0573,0.0668,0.0702,0.0794,0.0835,0.0879,0.0924,0.099,0.1026,0.1079,0.1026,0.1041,0.0921,0.0773,0.0754,0.0659,0.0619,0.0454,0.0446,0.0437,0.0427,0.0544,0.0544,0.0545,0.0545,0.0545,0,0.0529,0.0602,0.0692,0.0745,0.0847,0.0894,0.1003,0.1029,0.1115,0.1219,0.117,0.1235,0.1075,0.0998,0.0826,0.0643,0.0698,0.0469,0.0431,0.046,0.0454,0.0495,0.0491,0.0541,0.0542,0.0543,0.0543,0,0.0559,0.0623,0.0731,0.0836,0.0869,0.0945,0.1082,0.1175,0.1242,0.1385,0.1413,0.1402,0.1285,0.1088,0.0894,0.0735,0.0551,0.0462,0.0484,0.045,0.0319,0.0319,0.0276,0.0273,0.0271,0.0269,0.0267,0,0.0585,0.0645,0.0779,0.0845,0.0897,0.1017,0.1116,0.122,0.1337,0.1494,0.1574,0.1511,0.147,0.1144,0.0841,0.0521,0.0483,0.0338,0.0301,0.0329,0.0297,0.0301,0.0305,0.0309,0.0307,0.0306,0.0306,0,0.0633,0.0679,0.0773,0.0886,0.0998,0.1157,0.1305,0.142,0.1583,0.1699,0.1823,0.18,0.1497,0.1179,0.074,0.0528,0.0389,0.0304,0.0365,0.0367,0.0352,0.0322,0.0327,0.0297,0.0298,0.0298,0.0299,0.0299,0.0658,0.0722,0.0826,0.093,0.1076,0.1285,0.1437,0.1608,0.1802,0.198,0.1955,0.1908,0.1574,0.0976,0.0634,0.028,0.0297,0.0172,0.0179,0.0187,0.0201,0.0182,0.0095,0.0095,0.0095,0.0094,0.0094,0,0.0699,0.0762,0.0856,0.1018,0.1195,0.1274,0.1555,0.1712,0.1945,0.2034,0.2088,0.1731,0.1383,0.098,0.0466,0.0163,0.0165,0.0042,0.0127,0.0137,0.0147,0.0162,0.0043,0.0042,0.0041,0.004,0,0,0.0722,0.0813,0.0848,0.1085,0.1224,0.1505,0.1696,0.1883,0.1997,0.2054,0.1997,0.1902,0.1457,0.106,0.0646,0.0351,0.0314,0.0282,0.0357,0.0519,0.0532,0.0255,0.0293,0,0,0,0,0]}],[{"header":{"parameterUnit":"m.s-1","parameterCategory":2,"la1":30.2991,"la2":30.254,"lo1":-89.0895,"lo2":-89.0444,"dy":0.0017,"dx":0.0017,"nx":28,"ny":28,"refTime":"2026-02-25T03:00:00:Z","depth":"4","parameterNumber":2,"parameterNumberName":"U-component_of_CURRENTS"},"data":[0,0,0,0,0,0,0,0,0,0,0,0,0,0,0,0,0,0,0,0,0,0,0,0,0,0,0,0,0,0,0,0,0,0,0,0,0,0,0,0,0,0,0,0,0,0,0,0,0,0,0,0,0,0,0,0,0,0,0.1466,0.1467,0,0.1511,0.1512,0.1512,0.1574,0.1575,0.1576,0.1577,0.1657,0.1658,0.1659,0,0,0,0,0,0,0,0,0,0,0,0,0,0.1439,0.1439,0.1466,0.1467,0.1467,0.1511,0.1512,0.1513,0.1574,0.1575,0.1576,0.1577,0.1656,0.1658,0.1659,0,0,0,0,0,0,0,0,0,0,0,0,0,0.1465,0.1439,0.1466,0.1502,0.1506,0.1511,0.1512,0.1513,0.1573,0.1575,0.1576,0.1578,0.1656,0.1658,0.166,0.1643,0,0,0.1665,0.1666,0,0,0,0,0,0,0,0,0.1463,0.1466,0.1496,0.15,0.1504,0.1538,0.1532,0.1558,0.1573,0.1549,0.1577,0.1578,0.1618,0.1623,0.163,0.1647,0.165,0.1666,0.1667,0.1668,0.1668,0,0,0,0,0,0,0,0.1461,0.1464,0.1485,0.1497,0.1501,0.1518,0.1523,0.1537,0.1577,0.1551,0.1555,0.1558,0.1621,0.1628,0.1632,0.1651,0.1665,0.1667,0.1668,0.1669,0.1777,0.1779,0,0,0,0,0,0,0.1452,0.1462,0.1484,0.1486,0.1485,0.1517,0.1523,0.1526,0.1576,0.1584,0.1557,0.1561,0.1624,0.163,0.1635,0.1716,0.1667,0.1669,0.167,0.1776,0.1778,0.178,0,0,0,0,0,0,0.1451,0.1453,0.1482,0.1475,0.1479,0.1516,0.1519,0.1526,0.1561,0.158,0.1589,0.1587,0.1625,0.1633,0.1678,0.1716,0.167,0.1672,0.1773,0.1776,0.1779,0.1816,0,0,0,0,0,0,0.145,0.1453,0.1468,0.1474,0.1479,0.1496,0.1518,0.1526,0.1558,0.1565,0.1608,0.1616,0.1627,0.1675,0.168,0.1718,0.1673,0.1771,0.1775,0.1778,0.1812,0.1819,0.1825,0,0,0,0,0,0.1449,0.1452,0.1469,0.1472,0.1494,0.1496,0.1501,0.1532,0.1559,0.157,0.1612,0.1616,0.17,0.1678,0.1683,0.1723,0.177,0.1774,0.1778,0.1809,0.1818,0.1825,0,0,0,0,0,0,0.1452,0.1459,0.1477,0.1486,0.1498,0.1506,0.1521,0.1543,0.1584,0.1605,0.1628,0.1638,0.1695,0.1701,0.1676,0.1765,0.1739,0.1744,0.1762,0.177,0.1776,0.1794,0.1675,0,0,0,0,0,0.1458,0.1465,0.1473,0.1485,0.1488,0.1512,0.1524,0.1547,0.1573,0.1594,0.1628,0.167,0.1709,0.1734,0.1762,0.1801,0.1819,0.1834,0.1841,0.1846,0.1865,0.1931,0.1945,0.1792,0.1792,0.1792,0,0,0.1466,0.147,0.1478,0.1487,0.15,0.1515,0.1524,0.1545,0.1582,0.1595,0.1663,0.1691,0.1724,0.1777,0.1804,0.1791,0.1894,0.1851,0.1855,0.1872,0.1936,0.1951,0.1964,0.1795,0.1795,0.1794,0,0,0.1469,0.1484,0.1489,0.1497,0.1517,0.1532,0.1543,0.1569,0.1607,0.1662,0.1691,0.1747,0.1797,0.1835,0.1859,0.1918,0.1925,0.1927,0.1976,0.2039,0.2052,0.2064,0.2083,0.2097,0.1932,0.1932,0.1932,0,0.1488,0.1489,0.1493,0.1498,0.1516,0.1542,0.1561,0.1595,0.1644,0.1682,0.1695,0.1808,0.1832,0.191,0.1936,0.1935,0.1956,0.194,0.2048,0.206,0.2071,0.2089,0.2103,0.1934,0.1934,0.1934,0.1934,0,0.1478,0.1501,0.15,0.1523,0.1544,0.156,0.1599,0.1642,0.1696,0.1737,0.1834,0.1879,0.1953,0.1967,0.1973,0.2068,0.205,0.2044,0.2025,0.2089,0.2103,0.2117,0.1938,0.1937,0.1936,0.1936,0,0,0.1469,0.1493,0.1499,0.1519,0.1562,0.1571,0.1639,0.1699,0.1755,0.1829,0.1915,0.1994,0.2035,0.2067,0.2088,0.2142,0.223,0.2134,0.2136,0.2148,0.2347,0.2163,0.216,0.2246,0.225,0.2252,0.2315,0,0.147,0.1485,0.1506,0.1548,0.156,0.1612,0.1666,0.1733,0.1809,0.1895,0.1976,0.2064,0.2069,0.212,0.218,0.223,0.2274,0.2212,0.2289,0.2291,0.2116,0.2173,0.2263,0.2325,0.2329,0.2331,0.2333,0,0.1453,0.1466,0.1498,0.156,0.1571,0.1618,0.1714,0.1766,0.1887,0.1953,0.2066,0.2127,0.2246,0.2232,0.2365,0.2328,0.2348,0.2369,0.2371,0.2202,0.2134,0.2256,0.2358,0.2356,0.2354,0.2352,0.2351,0,0.1421,0.1468,0.1496,0.1511,0.1576,0.163,0.1691,0.1799,0.1859,0.2012,0.2087,0.2219,0.2319,0.2381,0.2435,0.2419,0.2548,0.2528,0.2373,0.2359,0.2489,0.2476,0.261,0.261,0.261,0.261,0.2609,0,0.1395,0.1421,0.1491,0.1498,0.155,0.1621,0.1693,0.1784,0.1918,0.1994,0.2129,0.2216,0.2369,0.2451,0.247,0.2461,0.2584,0.2394,0.2374,0.2499,0.2486,0.2498,0.2484,0.2612,0.2611,0.2611,0.2611,0,0.134,0.1386,0.1409,0.1491,0.1531,0.1568,0.169,0.1733,0.189,0.2008,0.207,0.2264,0.2372,0.2459,0.2567,0.2497,0.2502,0.2457,0.2571,0.2555,0.2261,0.2248,0.2305,0.2299,0.2294,0.229,0.2287,0,0.1307,0.1314,0.1383,0.1385,0.1429,0.1496,0.1536,0.1707,0.1772,0.2005,0.2061,0.2237,0.2332,0.235,0.2438,0.2448,0.2415,0.2385,0.2336,0.226,0.2236,0.2231,0.2225,0.2279,0.2278,0.2276,0.2275,0,0.1224,0.1254,0.1262,0.1258,0.1305,0.1343,0.1451,0.1514,0.1705,0.1866,0.2013,0.2081,0.2193,0.2265,0.2282,0.2281,0.2392,0.2334,0.2344,0.2297,0.2229,0.2209,0.2209,0.2258,0.2261,0.2262,0.2263,0,0.116,0.1125,0.1112,0.1102,0.1135,0.1173,0.1269,0.1376,0.1487,0.1799,0.1832,0.2017,0.2187,0.2176,0.2188,0.2176,0.2146,0.2063,0.2087,0.2106,0.2006,0.1888,0.1807,0,0,0,0,0,0.1083,0.1,0.0947,0.0922,0.0944,0.0982,0.1169,0.1284,0.1523,0.1586,0.172,0.1813,0.1887,0.1973,0.1922,0.2058,0.2121,0.1981,0.2029,0.2165,0.2184,0.2081,0,0,0,0,0,0,0.1007,0.0956,0.088,0.0749,0.0712,0.0754,0.089,0.1088,0.1155,0.1411,0.1477,0.164,0.1745,0.1871,0.1855,0.1876,0.1858,0.209,0.2084,0.2154,0.2171,0.2187,0.2088,0,0,0,0,0]},{"header":{"parameterUnit":"m.s-1","parameterCategory":2,"la1":30.2991,"la2":30.254,"lo1":-89.0895,"lo2":-89.0444,"dy":0.0017,"dx":0.0017,"nx":28,"ny":28,"refTime":"2026-02-25T03:00:00:Z","depth":"4","parameterNumber":3,"parameterNumberName":"V-component_of_CURRENTS"},"data":[0,0,0,0,0,0,0,0,0,0,0,0,0,0,0,0,0,0,0,0,0,0,0,0,0,0,0,0,0,0,0,0,0,0,0,0,0,0,0,0,0,0,0,0,0,0,0,0,0,0,0,0,0,0,0,0,0,0,0.008,0.008,0,0.0095,0.0095,0.0095,0.0094,0.0094,0.0094,0.0094,0.0081,0.0081,0.0081,0,0,0,0,0,0,0,0,0,0,0,0,0,0.0044,0.0045,0.008,0.008,0.008,0.0095,0.0095,0.0095,0.0094,0.0094,0.0094,0.0094,0.0081,0.0081,0.0081,0,0,0,0,0,0,0,0,0,0,0,0,0,0.0059,0.0045,0.008,0.0082,0.0082,0.0095,0.0095,0.0095,0.0094,0.0094,0.0094,0.0094,0.0082,0.0081,0.0081,0.0086,0,0,0.008,0.008,0,0,0,0,0,0,0,0,0.0058,0.006,0.0081,0.0081,0.0082,0.0092,0.0078,0.0091,0.0095,0.009,0.0094,0.0093,0.0083,0.0083,0.0086,0.0085,0.0084,0.008,0.008,0.008,0.008,0,0,0,0,0,0,0,0.0057,0.006,0.0085,0.0081,0.0082,0.0079,0.0081,0.008,0.0087,0.009,0.009,0.0092,0.0083,0.0086,0.0086,0.0084,0.008,0.008,0.008,0.008,0.009,0.009,0,0,0,0,0,0,0.0056,0.0059,0.0085,0.0086,0.0069,0.008,0.0082,0.0089,0.0088,0.0087,0.0092,0.0092,0.0087,0.0086,0.0085,0.0099,0.008,0.008,0.008,0.0089,0.009,0.009,0,0,0,0,0,0,0.0056,0.0059,0.0084,0.0072,0.0075,0.0081,0.0089,0.009,0.0093,0.009,0.0089,0.0095,0.0087,0.0086,0.0091,0.0098,0.008,0.008,0.0089,0.0089,0.009,0.0121,0,0,0,0,0,0,0.0055,0.0059,0.0065,0.0073,0.0076,0.0098,0.0089,0.009,0.0095,0.0095,0.0092,0.009,0.0086,0.0091,0.009,0.0098,0.0079,0.0088,0.0089,0.009,0.012,0.0123,0.0126,0,0,0,0,0,0.0053,0.0065,0.0065,0.0068,0.0084,0.0099,0.0101,0.0103,0.0095,0.0104,0.0101,0.0091,0.0095,0.0092,0.0091,0.0098,0.0088,0.0089,0.009,0.0119,0.0122,0.0126,0,0,0,0,0,0,0.0052,0.0067,0.0066,0.0082,0.0091,0.0099,0.0108,0.0105,0.0109,0.0108,0.0098,0.0097,0.0103,0.0097,0.0093,0.0102,0.0089,0.0089,0.0111,0.0114,0.0117,0.0119,0.0079,0,0,0,0,0,0.0054,0.0069,0.0079,0.0091,0.0097,0.0101,0.0107,0.0109,0.0113,0.0114,0.011,0.0106,0.0106,0.0107,0.0106,0.0114,0.009,0.0116,0.0119,0.0122,0.0123,0.0096,0.0097,0.0093,0.0093,0.0093,0,0,0.0056,0.0067,0.0074,0.0092,0.0099,0.0118,0.0104,0.0118,0.0131,0.0112,0.0126,0.0116,0.011,0.012,0.0121,0.0115,0.011,0.0123,0.0125,0.0125,0.0097,0.0098,0.0098,0.0094,0.0093,0.0093,0,0,0.0074,0.0078,0.0099,0.0109,0.0125,0.013,0.0134,0.0143,0.0145,0.0159,0.0145,0.014,0.0145,0.0139,0.0137,0.0155,0.0125,0.0154,0.0172,0.0147,0.0147,0.0146,0.0112,0.0108,0.0157,0.0157,0.0157,0,0.0074,0.0104,0.0107,0.0129,0.0142,0.0137,0.0162,0.0166,0.0174,0.0176,0.017,0.0165,0.0156,0.016,0.0165,0.0161,0.0138,0.016,0.015,0.0149,0.0148,0.0113,0.0109,0.0158,0.0158,0.0158,0.0158,0,0.0111,0.0132,0.0145,0.0174,0.0188,0.0207,0.0215,0.0223,0.0222,0.022,0.0222,0.0207,0.0205,0.0198,0.0189,0.0179,0.0161,0.0155,0.014,0.015,0.0113,0.0108,0.0161,0.016,0.016,0.0159,0,0,0.0118,0.0163,0.0168,0.0194,0.0213,0.0233,0.0251,0.0269,0.0285,0.0274,0.0286,0.0271,0.0252,0.0248,0.0227,0.0201,0.017,0.0177,0.0175,0.0142,0.0104,0.0095,0.0088,0.016,0.016,0.0159,0.0078,0,0.0147,0.0202,0.0214,0.0264,0.0294,0.0296,0.032,0.0329,0.0331,0.034,0.0306,0.0313,0.0275,0.0278,0.0243,0.0196,0.0158,0.0192,0.01,0.0097,0.0087,0.0083,0.0158,0.0074,0.0073,0.0072,0.0071,0,0.0179,0.0216,0.027,0.0323,0.0337,0.0365,0.0402,0.0425,0.0423,0.0421,0.0402,0.0376,0.034,0.0309,0.0216,0.0239,0.0172,0.0124,0.012,0.0097,0.0079,0.0063,0.0061,0.0062,0.0063,0.0064,0.0064,0,0.0193,0.0255,0.0302,0.0318,0.0373,0.0401,0.0435,0.045,0.0488,0.0474,0.049,0.0429,0.0421,0.0325,0.0218,0.022,0.0105,0.0099,0.002,0.0018,0.0036,0.0037,0.0021,0.0021,0.0021,0.0022,0.0022,0,0.0217,0.0259,0.0319,0.0345,0.0421,0.0441,0.051,0.0529,0.0563,0.0608,0.0541,0.0549,0.0426,0.0345,0.0231,0.0108,0.0112,0.0018,-0.0002,0.005,0.0054,0.0031,0.0034,0.0018,0.0019,0.002,0.002,0,0.0232,0.0261,0.0331,0.0401,0.0431,0.0493,0.059,0.0644,0.0654,0.071,0.0713,0.0651,0.0544,0.04,0.0245,0.0146,0.0015,-0.0037,0.0021,0.0005,-0.006,-0.0055,-0.0119,-0.012,-0.0121,-0.0122,-0.0122,0,0.0247,0.0277,0.0379,0.0437,0.0479,0.0568,0.064,0.0692,0.0752,0.0769,0.0803,0.0717,0.0648,0.0421,0.0256,0.0029,-0.0006,-0.0085,-0.0068,-0.006,-0.0074,-0.0067,-0.0061,-0.0124,-0.0124,-0.0124,-0.0124,0,0.0281,0.0313,0.038,0.0496,0.0587,0.0687,0.0787,0.0836,0.0889,0.0896,0.0879,0.0755,0.063,0.0438,0.0255,0.009,-0.0036,-0.0094,-0.0093,-0.0078,-0.0066,-0.0077,-0.007,-0.0127,-0.0127,-0.0126,-0.0126,0,0.0315,0.0373,0.0457,0.0565,0.0676,0.078,0.0826,0.0894,0.095,0.0963,0.0948,0.0797,0.0713,0.0468,0.0298,0.0136,0.0101,0.0042,0.0035,0.0036,0.0101,0.014,0.0123,0,0,0,0,0,0.0353,0.0422,0.0521,0.0647,0.0753,0.0811,0.0918,0.0951,0.0988,0.0994,0.0977,0.0854,0.0612,0.0502,0.0343,0.0277,0.0064,0.0082,-0.0009,-0.0143,-0.0139,-0.0091,0,0,0,0,0,0,0.0383,0.0478,0.0529,0.0685,0.0768,0.0895,0.0955,0.0984,0.0982,0.0983,0.0862,0.08,0.0569,0.0704,0.0335,0.0285,0.0202,-0.0029,-0.0033,-0.0145,-0.0142,-0.0139,-0.0088,0,0,0,0,0]}]]